(370150) = 2001 XA174 = 2005 XQ34

Discovered at Socorro on 2001-12-14 by LINEAR.

Orbit

Orbit type: Main Belt

Note: WebGL enabled browser required.

epoch2024-03-31.0
epoch JD2460400.5
perihelion date2022-01-24.07130
perihelion JD2459603.57131
argument of perihelion (°)144.08621
ascending node (°)243.37536
inclination (°)4.18772
eccentricity0.2762932
perihelion distance (AU)1.8600044
Tisserand w.r.t. Jupiter3.4
ΔV w.r.t. Earth (km/sec)8.7
semimajor axis (AU)2.5701079
mean anomaly (°)190.63231
mean daily motion (°/day)0.23920870
aphelion distance (AU)3.280
period (years)4.12
P-vector [x]0.88592033
P-vector [y]0.40670577
P-vector [z]0.22301477
Q-vector [x]-0.45922058
Q-vector [y]0.83673698
Q-vector [z]0.29830804
absolute magnitude17.13
phase slope0.15
uncertainty0
referenceE2024-F93
observations used444
oppositions11
arc length (days)9175
first opposition used1998
last opposition used2023
residual rms (arc-secs)0.81
perturbers coarse indicatorM-v
perturbers precise indicator003Ek
first observation date used1998-02-02.0
last observation date used2023-03-18.0
computer nameMPCLINUX
JD of orbit computation2456670.683022
perihelion JD uncertainty (days)3.5706E-04
argument of perihelion uncertainty (°)1.7230E-04
ascending node uncertainty (°)6.2428E-05
inclination uncertainty (°)8.1892E-06
eccentricity uncertainty 5.6516E-07
perihelion distance uncertainty (AU)1.5602E-06
Minimum Orbit Intersection Distances (in AU)
for orbit epoch: 2460400.5, reference: E2024-F93
Mercury1.52883
Venus1.14
Earth0.86696
Mars0.4182
Jupiter2.17699
Saturn6.3934
Uranus15.2871
Neptune27.3887

Observations

453 total observations over interval: 1998 02 02.25419 – 2023 03 18.391369
These data are available for download (format description).

Date (UT) J2000 RA J2000 Dec Magn Location Ref
1998 02 02.25419 07 48 29.72 +15 03 26.3 20.6 V 691 – Steward Observatory, Kitt Peak-Spacewatch MPS 155795
1998 02 02.27621 07 48 28.51 +15 03 29.9 20.5 V 691 – Steward Observatory, Kitt Peak-Spacewatch MPS 155795
1998 02 02.29782 07 48 27.32 +15 03 27.4 15.8 V 691 – Steward Observatory, Kitt Peak-Spacewatch MPS 155795
2001 12 14.37365 07 10 39.30 +18 28 10.4 19.3   704 – Lincoln Laboratory ETS, New Mexico MPS 45339
2001 12 14.38885 07 10 38.56 +18 28 08.9 19.8   704 – Lincoln Laboratory ETS, New Mexico MPS 45339
2001 12 14.40405 07 10 37.72 +18 28 07.2 20.2   704 – Lincoln Laboratory ETS, New Mexico MPS 45339
2001 12 14.41926 07 10 36.87 +18 28 05.6 19.9   704 – Lincoln Laboratory ETS, New Mexico MPS 45339
2001 12 17.31510 07 07 55.39 +18 24 33.8 19.7   644 – Palomar Mountain/NEAT MPS 45339
2001 12 17.34710 07 07 53.45 +18 24 32.0 19.6   644 – Palomar Mountain/NEAT MPS 45339
2001 12 17.37314 07 07 51.80 +18 24 29.3 19.2   704 – Lincoln Laboratory ETS, New Mexico MPS 45339
2001 12 17.38031 07 07 51.45 +18 24 29.9 19.7   644 – Palomar Mountain/NEAT MPS 45339
2001 12 17.38834 07 07 50.86 +18 24 28.2 19.4   704 – Lincoln Laboratory ETS, New Mexico MPS 45339
2001 12 17.40356 07 07 49.96 +18 24 27.5 19.5   704 – Lincoln Laboratory ETS, New Mexico MPS 45339
2001 12 17.41878 07 07 49.02 +18 24 26.1 19.3   704 – Lincoln Laboratory ETS, New Mexico MPS 45339
2001 12 17.43400 07 07 48.11 +18 24 25.2 19.7   704 – Lincoln Laboratory ETS, New Mexico MPS 45339
2001 12 23.30802 07 01 50.09 +18 18 50.4 19.4   704 – Lincoln Laboratory ETS, New Mexico MPS 46946
2001 12 23.33840 07 01 48.01 +18 18 49.5 19.7   704 – Lincoln Laboratory ETS, New Mexico MPS 46946
2001 12 23.35364 07 01 47.06 +18 18 48.0 19.4   704 – Lincoln Laboratory ETS, New Mexico MPS 46946
2001 12 25.37592 06 59 37.48 +18 17 24.5 20.3   608 – Haleakala-AMOS MPS 46946
2001 12 25.38665 06 59 36.77 +18 17 24.0 20.9   608 – Haleakala-AMOS MPS 46946
2001 12 25.39723 06 59 36.08 +18 17 24.0 20.8   608 – Haleakala-AMOS MPS 46946
2002 01 09.27610 06 43 34.03 +18 12 33.9 19.9   704 – Lincoln Laboratory ETS, New Mexico MPS 46946
2002 01 09.29122 06 43 33.10 +18 12 33.8 19.3   704 – Lincoln Laboratory ETS, New Mexico MPS 46946
2002 01 09.30635 06 43 32.10 +18 12 33.9 19.7   704 – Lincoln Laboratory ETS, New Mexico MPS 46946
2002 01 09.32301 06 43 31.07 +18 12 33.7 19.6   704 – Lincoln Laboratory ETS, New Mexico MPS 46946
2005 11 29.33588 05 34 48.40 +21 36 29.5 19.8   704 – Lincoln Laboratory ETS, New Mexico MPS 155235
2005 11 29.34951 05 34 47.63 +21 36 26.1 19.4   704 – Lincoln Laboratory ETS, New Mexico MPS 155235
2005 11 29.36263 05 34 46.73 +21 36 22.6 19.8   704 – Lincoln Laboratory ETS, New Mexico MPS 155235
2005 11 29.37560 05 34 46.02 +21 36 20.3 19.7   704 – Lincoln Laboratory ETS, New Mexico MPS 155235
2005 12 04.26648 05 29 59.20 +21 17 07.1 19.2   704 – Lincoln Laboratory ETS, New Mexico MPS 155489
2005 12 04.27963 05 29 58.43 +21 17 05.8 20.1   704 – Lincoln Laboratory ETS, New Mexico MPS 155489
2005 12 04.29283 05 29 57.50 +21 17 01.2 19.6   704 – Lincoln Laboratory ETS, New Mexico MPS 155489
2005 12 04.30579 05 29 56.68 +21 16 58.4 19.8   704 – Lincoln Laboratory ETS, New Mexico MPS 155489
2005 12 08.15196 05 26 00.25 +21 01 53.7 19.6 V 691 – Steward Observatory, Kitt Peak-Spacewatch MPS 155489
2005 12 08.17721 05 25 58.65 +21 01 48.4 19.4 V 691 – Steward Observatory, Kitt Peak-Spacewatch MPS 155489
2005 12 08.20242 05 25 56.99 +21 01 43.2 20.4 V 691 – Steward Observatory, Kitt Peak-Spacewatch MPS 155489
2005 12 09.20004 05 24 54.83 +20 57 52.0 19.4   704 – Lincoln Laboratory ETS, New Mexico MPS 155235
2005 12 09.21325 05 24 54.00 +20 57 48.4 20.2   704 – Lincoln Laboratory ETS, New Mexico MPS 155235
2005 12 09.22626 05 24 53.12 +20 57 44.8 20.1   704 – Lincoln Laboratory ETS, New Mexico MPS 155235
2005 12 09.23924 05 24 52.30 +20 57 42.4 19.9   704 – Lincoln Laboratory ETS, New Mexico MPS 155235
2005 12 09.25250 05 24 51.46 +20 57 38.7 19.9   704 – Lincoln Laboratory ETS, New Mexico MPS 155235
2005 12 10.26678 05 23 48.14 +20 53 42.8 19.4   704 – Lincoln Laboratory ETS, New Mexico MPS 155235
2005 12 10.30575 05 23 45.72 +20 53 34.6 19.6   704 – Lincoln Laboratory ETS, New Mexico MPS 155235
2005 12 10.31858 05 23 44.84 +20 53 31.8 19.4   704 – Lincoln Laboratory ETS, New Mexico MPS 155235
2005 12 21.14993 05 12 57.98 +20 13 56.8 19.4 V 691 – Steward Observatory, Kitt Peak-Spacewatch MPS 155795
2005 12 21.16537 05 12 57.09 +20 13 53.9 19.4 V 691 – Steward Observatory, Kitt Peak-Spacewatch MPS 155795
2005 12 21.18082 05 12 56.20 +20 13 51.3 19.3 V 691 – Steward Observatory, Kitt Peak-Spacewatch MPS 155795
2005 12 25.12490 05 09 27.88 +20 01 02.7 19.5 V 691 – Steward Observatory, Kitt Peak-Spacewatch MPS 156479
2005 12 25.12994 05 09 27.61 +20 01 01.9 19.5 V 691 – Steward Observatory, Kitt Peak-Spacewatch MPS 156479
2005 12 25.14020 05 09 27.08 +20 01 00.3 19.5 V 691 – Steward Observatory, Kitt Peak-Spacewatch MPS 156479
2005 12 25.14525 05 09 26.82 +20 00 59.2 19.5 V 691 – Steward Observatory, Kitt Peak-Spacewatch MPS 156479
2005 12 25.15552 05 09 26.28 +20 00 57.5 19.5 V 691 – Steward Observatory, Kitt Peak-Spacewatch MPS 156479
2005 12 25.16056 05 09 26.00 +20 00 56.6 19.5 V 691 – Steward Observatory, Kitt Peak-Spacewatch MPS 156479
2005 12 27.13330 05 07 50.14 +19 54 59.5   691 – Steward Observatory, Kitt Peak-Spacewatch MPS 156479
2005 12 27.14357 05 07 49.65 +19 54 57.8   691 – Steward Observatory, Kitt Peak-Spacewatch MPS 156479
2005 12 27.15384 05 07 49.12 +19 54 56.0   691 – Steward Observatory, Kitt Peak-Spacewatch MPS 156479
2005 12 27.26101 05 07 43.82 +19 54 37.9 18.8 V 703 – Catalina Sky Survey MPS 156479
2005 12 27.26962 05 07 43.35 +19 54 36.0 19.5 V 703 – Catalina Sky Survey MPS 156479
2005 12 27.27824 05 07 42.99 +19 54 34.5 19.2 V 703 – Catalina Sky Survey MPS 156479
2005 12 27.28685 05 07 42.42 +19 54 33.6 19.5 V 703 – Catalina Sky Survey MPS 156479
2009 10 23.28321 03 38 47.96 +22 28 28.5 19.3   704 – Lincoln Laboratory ETS, New Mexico MPS 300568
2009 10 23.29673 03 38 47.46 +22 28 24.7 19.4   704 – Lincoln Laboratory ETS, New Mexico MPS 300568
2009 10 23.31024 03 38 47.09 +22 28 21.0 19.5   704 – Lincoln Laboratory ETS, New Mexico MPS 300568
2009 10 23.32377 03 38 46.68 +22 28 17.1 19.7   704 – Lincoln Laboratory ETS, New Mexico MPS 300568
2009 10 23.33732 03 38 46.13 +22 28 13.2 19.2   704 – Lincoln Laboratory ETS, New Mexico MPS 300568
2009 10 24.27377 03 38 19.46 +22 24 00.7 18.8 V 703 – Catalina Sky Survey MPS 300568
2009 10 24.28220 03 38 19.24 +22 23 58.4 18.1 V 703 – Catalina Sky Survey MPS 300568
2009 10 24.29066 03 38 18.88 +22 23 57.4 18.9 V 703 – Catalina Sky Survey MPS 300568
2009 10 24.29907 03 38 18.70 +22 23 55.8 18.7 V 703 – Catalina Sky Survey MPS 300568
2009 10 25.38301 03 37 44.97 +22 18 50.1 19.1 V 703 – Catalina Sky Survey MPS 300568
2009 10 25.39087 03 37 44.76 +22 18 48.3 18.7 V 703 – Catalina Sky Survey MPS 300568
2009 10 25.39884 03 37 44.40 +22 18 46.8 18.9 V 703 – Catalina Sky Survey MPS 300568
2009 10 25.40679 03 37 44.11 +22 18 44.6 19.3 V 703 – Catalina Sky Survey MPS 300568
2009 11 08.25853 03 28 05.62 +20 58 13.2 18.4 V 703 – Catalina Sky Survey MPS 302107
2009 11 08.26582 03 28 05.23 +20 58 09.8 18.7 V 703 – Catalina Sky Survey MPS 302107
2009 11 08.27303 03 28 04.87 +20 58 06.7 18.1 V 703 – Catalina Sky Survey MPS 302107
2009 11 08.28029 03 28 04.54 +20 58 03.9 18.5 V 703 – Catalina Sky Survey MPS 302107
2009 11 10.93573 03 25 53.02 +20 40 03.5 18.6 V J75 – OAM Observatory, La Sagra MPS 302107
2009 11 10.94897 03 25 52.27 +20 39 58.2 18.5 V J75 – OAM Observatory, La Sagra MPS 302107
2009 11 10.96191 03 25 51.62 +20 39 53.1 18.6 V J75 – OAM Observatory, La Sagra MPS 302107
2009 11 11.94281 03 25 02.45 +20 33 06.3 18.4 V J75 – OAM Observatory, La Sagra MPS 302107
2009 11 11.95573 03 25 01.76 +20 33 01.3 18.6 V J75 – OAM Observatory, La Sagra MPS 302107
2009 11 11.96865 03 25 01.06 +20 32 56.3 18.6 V J75 – OAM Observatory, La Sagra MPS 302107
2009 11 13.89479 03 23 24.18 +20 19 28.2 18.2 V J75 – OAM Observatory, La Sagra MPS 303203
2009 11 13.90772 03 23 23.52 +20 19 23.2 18.6 V J75 – OAM Observatory, La Sagra MPS 303203
